Regional Weather Roundup
Issued by NWS

Home | Current Version | Previous Version | Text Only | Print | Product List | Glossary On
Versions: 1 2 3 4 5 6 7 8 9 10 11 12 13 14 15 16 17 18 19 20 21 22 23 24 25 26 27 28 29 30 31 32 33 34 35 36 37 38 39 40 41 42 43 44 45 46 47 48 49 50
394
ASHW40 PHFO 060312
RWRHI

WEATHER ROUNDUP FOR HAWAII
NATIONAL WEATHER SERVICE HONOLULU HI
500 PM HST FRI FEB 05 2016

THIS IS AN AUTOMATED REPORT THAT HAS NOT BEEN QUALITY CONTROLLED.

NOTE..."FAIR" INDICATES FEW OR NO CLOUDS BELOW 12,000 FEET WITH NO
SIGNIFICANT WEATHER AND/OR OBSTRUCTIONS TO VISIBILITY.

* - THESE SITES REPORT LIMITED FIELDS

HIZ001>004-060400-
KAUAI-NIIHAU-

CITY           SKY/WX    TMP DP  RH WIND       PRES   REMARKS
LIHUE APT      SUNNY     79  65  62 NE12      29.97R
PORT ALLEN*      N/A     84 N/A N/A W10         N/A
POIPU*           N/A     82 N/A N/A SW8G14      N/A
PRINCEVILLE*     N/A     79 N/A N/A NW6G13      N/A
KOKOLE POINT*  NOT AVBL
MOLOAA DAIRY*    N/A     81  66  61 W6G13       N/A
WAIMEA HTS*    NOT AVBL
PUU OPAE*      NOT AVBL
PUU LUA*       NOT AVBL
MAKAHA RIDGE*  NOT AVBL
$$

HIZ005>011-060400-
OAHU-

CITY           SKY/WX    TMP DP  RH WIND       PRES   REMARKS
HONOLULU       MOSUNNY   80  68  66 SW12      29.95R
KALAELOA       CLOUDY    79  65  62 W14       29.96S
KANEOHE MCB    PTSUNNY   77  69  76 NE5       29.93S
WHEELER FIELD  FAIR      75  66  72 VRB7      29.96S
BELLOWS*       NOT AVBL
KAHUKU*        NOT AVBL
WHEELER*       NOT AVBL
WAIANAE HARBOR NOT AVBL
DILLINGHAM*      N/A     84  64  51 MISG        N/A
KAHUKU TRN*      N/A     79  72  78 E2          N/A
KAWAILOA*        N/A     81  66  61 W6G12       N/A
KII*             N/A     77  70  78 E3          N/A
MAKUA RANGE*     N/A     81  64  57 W5G12       N/A
OAHU FOREST NW NOT AVBL
SCHOFIELD BRK*   N/A     79  68  69 MISG        N/A
SCHOFIELD S*   NOT AVBL
WAIANAE VLY*   NOT AVBL
KUAOKALA*      NOT AVBL
HONOULIUULI*   NOT AVBL
MOKUOLOE IS*   NOT AVBL
PALEHUA*       NOT AVBL
WAIAWA PHB*    NOT AVBL
$$

HIZ012>013-060400-
MOLOKAI-

CITY           SKY/WX    TMP DP  RH WIND       PRES   REMARKS
MOLOKAI AIRPT  CLOUDY    79  64  60 NE6       29.96S
KALAUPAPA      NOT AVBL
MAKAPULAPAI*   NOT AVBL
MOLOKAI 1*     NOT AVBL
PUU ALII*      NOT AVBL
$$

HIZ016-060400-
KAHOOLAWE-

CITY           SKY/WX    TMP DP  RH WIND       PRES   REMARKS
KAHOOLAWE*     NOT AVBL
HAKIOAWA*      NOT AVBL
HONOKANAIA*      N/A     84  71  63 W12       29.88S
KANELOA*         N/A     79  66  65 NW9G23    30.01S
KEALIALALO*    NOT AVBL
LUA MAKIKA*    NOT AVBL
$$

HIZ014>015-060400-
LANAI-

CITY           SKY/WX    TMP DP  RH WIND       PRES   REMARKS
LANAI CITY     FAIR      75  62  64 W10       30.01S
LANAI 1*       NOT AVBL
$$

HIZ017>028-060400-
MAUI-

CITY           SKY/WX    TMP DP  RH WIND       PRES   REMARKS
KAHULUI        MOSUNNY   81  66  60 N7        29.94R
KAPALUA-W MAUI MOSUNNY   81  64  57 N12       29.95S
HANA AIRPORT   PTSUNNY   77  32  19 E2        29.97R
HANA*            N/A     79 N/A N/A SE7G14      N/A
HALEAKALA SUMM   N/A     57  32  38 SE3         N/A
MAALAEA BAY*   NOT AVBL
HALEAKALA*     NOT AVBL
KAUPO GAP*     NOT AVBL
KULA 1*          N/A     59  53  81 NW7         N/A
$$

HIZ023>026-060400-
BIG ISLAND OF HAWAII COAST AND LOWER SLOPES-

CITY           SKY/WX    TMP DP  RH WIND       PRES   REMARKS
KAILUA KONA    MOSUNNY   80  70  71 W7        29.94R
HILO           PTSUNNY   77  69  76 SE9       29.96R
HONOKAA*         N/A     73 N/A N/A VRB1        N/A
KAWAIHAE MWT*    N/A     82 N/A N/A W3          N/A
KAWAIHAE*      NOT AVBL
SOUTH POINT*     N/A     73 N/A N/A N12G18      N/A
UPOLU AIRPORT*   N/A    N/A N/A N/A W8G14       N/A
KAMUELA*       PTCLDY    73  61  64 W8        30.06R
HAKALAU*         N/A     60  53  78 SE5G13      N/A
KALOKO-HONOKO* NOT AVBL
PALI 2*          N/A     63  63 100 E6G15       N/A
KEALAKOMO*       N/A     75  72  88 NE6         N/A
KAUPULEHU*     NOT AVBL
KAPAPALA*        N/A     68  66  92 N3G9        N/A
LOWER KAHUKU*  NOT AVBL
PUHE CS*       NOT AVBL
PUHO CS*       NOT AVBL
PTA KEAMUKU*     N/A     68  57  68 CALM        N/A
WAIKOLOA*      NOT AVBL
$$

HIZ027>028-060400-
BIG ISLAND OF HAWAII INTERIOR AND SUMMMITS-

CITY           SKY/WX    TMP DP  RH WIND       PRES   REMARKS
BRADSHAW FIELD PTSUNNY   57  52  82 W6        30.27R
MK VISITOR CEN   N/A     55  14  19 S5          N/A
MAUNA KEA*       N/A     45  -8  11 NW5         N/A
MAUNA LOA*       N/A     50  37  62 MISG        N/A
MAUNA LOA 1*   NOT AVBL
PTA KIPUKA*      N/A     59  54  82 VRB5        N/A
PTA RANGE 17*    N/A     57  50  77 NW6G12      N/A
PTA WEST*        N/A     63  54  72 NW6G12      N/A
NENE CABIN*    NOT AVBL
AHUMOA*        NOT AVBL
PTA PORTABLE*  NOT AVBL
PUU MALI*        N/A     54  52  94 VRB3        N/A
$$

HIC003-060400-
NORTHWEST ISLANDS-

CITY           SKY/WX    TMP DP  RH WIND       PRES   REMARKS
MIDWAY ISLAND  MOSUNNY   70  48  46 NW10      30.15R
MIDWAY NOS*    NOT AVBL
FRENCH FRIGATE NOT AVBL
$$

PHZ110>124-180-060400-
BUOY REPORTS

STATION/POSITION TIME  TEMP    WIND        PRES    WAVE   SWELL
                       AIR SEA DIR/SP/G            HT/PER HT/DIR
                 (UTC) (F)     (DEG/KT/KT) (MB)    (FT/S) (FT/D)
BUOY 51001       0200   75 77  250/ 12/ 16 1014.5S
BUOY 51101       0250   76 77  250/ 14/ 16 1014.3F   7/11   7/310
BUOY 51100       NOT AVBL
BUOY 51002       0250   77 78   80/  8/ 10 1012.5R   7/10   7/130
BUOY 51003       0250   78 79   20/  8/  8 1014.0S   5/11   5/340
BUOY 51004       0250   76 78   90/ 14/ 16 1013.2R   8/10   7/ 90
BARBERS PT BUOY  NOT AVBL
WAIMEA BAY BUOY  0204      79                N/A     4/12   3/330
KAILUA BAY BUOY  0211      78                N/A     4/10   2/360
LANAI BUOY       NOT AVBL
BARBERS PT 2     0203      80                N/A     4/12   2/290
PAUWELA MAUI     0207      77                N/A     6/12   3/330
HILO             NOT AVBL
KANEOHE BAY BUOY 0206      77                N/A     4/11   2/360
HANALEI KAUAI    0301      78                N/A     6/12   3/310
KAHULUI HARBOR   0200   78 78  330/  7/ 10 1013.4R
HONOLULU HARBOR  0200   77 78  220/  6/  7 1014.5F
KILO NALU        NOT AVBL
HILO HARBOR      0200   78 77  150/  7/ 11 1013.9R
MOKUOLOE         0200   78 79  360/  5/  6 1014.1F
NAWILIWILI       0200   80 79  220/  6/ 11 1013.8F
WHOTS BUOY       NOT AVBL
BUOY 51028       NOT AVBL
$$

......................KEY........................................
  SKY/WX - SKY CONDITIONS/PRESENT WEATHER
  TMP    - TEMPERATURE IN FAHRENHEIT
  DWPT   - DEWPOINT IN FAHRENHEIT
  RH     - RELATIVE HUMIDITY IN PERCENT
  WIND   - DIRECTION AND SPEED /MPH FOR ISLANDS...KTS FOR BUOYS/
  PRES   - MEAN SEA LEVEL PRESSURE IN INCHES OF HG
  VSB    - VISIBILITY IN MILES
  HX     - HEAT INDEX
  WCI    - WIND CHILL INDEX
  VRB    - VARIABLE WIND DIRECTION
  N/A    - NOT AVAILABLE




USA.gov is the U.S. government's official web portal to all federal, state and local government web resources and services.